Home > Weather > Böblingen > Past weeks

Flag for Germany Weather for the Past 2 Weeks in Böblingen, Baden-Württemberg, Germany

Now
45 °F

Clear.


Feels Like: 45 °F
Forecast: 35 / 54 °F
Wind: 1 mph from North

Location: Stuttgart-Echterdingen

Current Time: May 3, 2016 at 3:40:10 AM

Latest Report: May 3, 2016 at 2:50 AM


Visibility: 10 mi

Pressure: 30.09 "Hg

Humidity: 76%

Dew Point: 37 °F

Location of BöblingenLocation

Historic Weather in Böblingen — Graph

°F

Böblingen Temperature Yesterday

Maximum temperature yesterday: 63 °F (at 2:50 PM)
Minimum temperature yesterday: 45 °F (at 4:20 AM)
Average temperature yesterday: 54 °F

High & Low Weather Summary for the Past Weeks

 TemperatureHumidityPressure
High68 °F (Apr 21, 3:50 PM)100% (Apr 18, 4:50 AM)30.39 "Hg (Apr 18, 4:50 AM)
Low30 °F (Apr 29, 3:50 AM)24% (Apr 21, 6:20 PM)29.56 "Hg (Apr 26, 5:50 AM)
Average46 °F70%30.01 "Hg
* Reported Apr 18 2:20 AM — May 3 2:20 AM, Böblingen, Weather by CustomWeather, © 2016

Note: Actual official high and low records may vary slightly from our data, if they occured in-between our weather recording intervals... More about our weather records

Advertising

Böblingen Weather History for the Previous 24 Hours

Scroll right to see more
 ConditionsComfort  
Time TempWeatherWind HumidityBarometerVisibility
2:20 AM
Tue, May 3
46 °FClear.2 mph76%30.09 "Hg10 mi
1:50 AM46 °FClear.3 mph76%30.09 "Hg10 mi
1:20 AM48 °FClear.2 mph71%30.12 "Hg10 mi
12:50 AM48 °FClear.1 mph71%30.12 "Hg10 mi
12:20 AM48 °FClear.2 mph71%30.09 "Hg10 mi
11:50 PM
Mon, May 2
50 °FPassing clouds.3 mph67%30.09 "HgN/A
11:20 PM50 °FPassing clouds.6 mph67%30.09 "HgN/A
10:50 PM52 °FClear.6 mph62%30.09 "Hg10 mi
10:20 PM54 °FPassing clouds.3 mph58%30.09 "HgN/A
9:50 PM57 °FClear.5 mph48%30.09 "Hg10 mi
9:20 PM57 °FSunny.5 mph48%30.09 "Hg10 mi
8:50 PM59 °FSunny.3 mph48%30.09 "Hg10 mi
8:20 PM61 °FSunny.5 mph42%30.09 "Hg10 mi
7:50 PM61 °FSunny.6 mph45%30.09 "Hg10 mi
7:20 PM63 °FPassing clouds.6 mph42%30.09 "HgN/A
6:50 PM61 °FPassing clouds.8 mph45%30.09 "HgN/A
6:20 PM63 °FPassing clouds.8 mph39%30.09 "HgN/A
5:50 PM63 °FPassing clouds.5 mph39%30.09 "HgN/A
5:20 PM63 °FSunny.8 mph45%30.12 "Hg10 mi
4:50 PM63 °FPassing clouds.5 mph42%30.12 "HgN/A
4:20 PM63 °FPassing clouds.5 mph39%30.12 "HgN/A
3:50 PM63 °FPassing clouds.8 mph39%30.12 "HgN/A
3:20 PM61 °FPassing clouds.7 mph42%30.12 "HgN/A
2:50 PM63 °FSunny.3 mph42%30.15 "Hg10 mi
2:20 PM61 °FPassing clouds.7 mph52%30.15 "HgN/A
1:50 PM59 °FPassing clouds.6 mph48%30.15 "HgN/A
1:20 PM59 °FPassing clouds.5 mph55%30.15 "HgN/A
12:50 PM59 °FPassing clouds.2 mph48%30.18 "HgN/A
12:20 PM57 °FPassing clouds.7 mph55%30.18 "HgN/A
11:20 AM55 °FPassing clouds.8 mph63%30.18 "HgN/A
10:50 AM54 °FPassing clouds.6 mph63%30.21 "HgN/A
10:20 AM54 °FPassing clouds.6 mph63%30.21 "HgN/A
9:50 AM54 °FPassing clouds.5 mph67%30.21 "HgN/A
9:20 AM52 °FScattered clouds.5 mph67%30.21 "HgN/A
8:50 AM50 °FPassing clouds.6 mph71%30.21 "HgN/A
8:20 AM48 °FPassing clouds.6 mph76%30.21 "HgN/A
7:20 AM45 °FPassing clouds.3 mph87%30.21 "HgN/A
6:50 AM45 °FClear.5 mph81%30.21 "Hg10 mi
6:20 AM45 °FClear.6 mph81%30.18 "Hg10 mi
5:20 AM45 °FClear.9 mph81%30.18 "Hg10 mi
4:50 AM45 °FClear.7 mph81%30.18 "Hg10 mi
4:20 AM45 °FClear.7 mph81%30.18 "Hg10 mi
3:50 AM46 °FClear.8 mph82%30.18 "Hg10 mi
3:20 AM48 °FClear.8 mph76%30.18 "Hg10 mi
Weather by CustomWeather, © 2016

See weather overviewHow to use our weather pages